Home > Weather > Bruck an der Mur > Past weeks

Flag for Austria Weather for the Past 2 Weeks in Bruck an der Mur, Styria, Austria

Now
52 °F

Broken clouds.


Feels Like: 47 °F
Forecast: 41 / 62 °F
Wind: 13 mph from Northwest

Location: Zeltweg

Current Time: May 4, 2016 at 6:16:23 PM

Latest Report: May 4, 2016 at 4:50 PM


Visibility: 19 mi

Pressure: 30.18 "Hg

Humidity: 47%

Dew Point: 32 °F

Location of Bruck an der MurLocation

Historic Weather in Bruck an der Mur — Graph

°F

Bruck an der Mur Temperature Yesterday

Maximum temperature yesterday: 61 °F (at 4:20 PM)
Minimum temperature yesterday: 45 °F (at 5:50 AM)
Average temperature yesterday: 53 °F

High & Low Weather Summary for the Past Weeks

 TemperatureHumidityPressure
High70 °F (Apr 22, 3:50 PM)100% (Apr 27, 8:20 AM)30.33 "Hg (Apr 27, 8:20 AM)
Low23 °F (Apr 26, 4:50 AM)25% (Apr 22, 3:50 PM)29.59 "Hg (Apr 23, 10:50 PM)
Average46 °F67%29.97 "Hg
* Reported Apr 19 4:20 PM — May 4 4:20 PM, Bruck an der Mur, Weather by CustomWeather, © 2016

Note: Actual official high and low records may vary slightly from our data, if they occured in-between our weather recording intervals... More about our weather records

Advertising

Bruck an der Mur Weather History for the Previous 24 Hours

Scroll right to see more
 ConditionsComfort  
Time TempWeatherWind HumidityBarometerVisibility
4:20 PM
Wed, May 4
52 °FBroken clouds.16 mph47%30.18 "Hg19 mi
3:50 PM50 °FPartly sunny.20 mph54%30.18 "Hg19 mi
3:20 PM54 °FPartly sunny.12 mph51%30.18 "Hg19 mi
2:50 PM52 °FPartly sunny.10 mph44%30.18 "Hg19 mi
2:20 PM52 °FPartly sunny.8 mph47%30.18 "Hg19 mi
1:20 PM52 °FPartly sunny.5 mph50%30.18 "Hg19 mi
12:50 PM52 °FPartly sunny.9 mph58%30.18 "Hg19 mi
12:20 PM52 °FPartly sunny.5 mph50%30.15 "Hg19 mi
11:50 AM52 °FPartly sunny.10 mph50%30.15 "Hg19 mi
11:20 AM52 °FPartly sunny.13 mph54%30.15 "Hg19 mi
10:50 AM52 °FPartly sunny.5 mph54%30.15 "Hg19 mi
9:50 AM52 °FPartly sunny.5 mph54%30.12 "Hg19 mi
9:20 AM50 °FPartly sunny.6 mph62%30.12 "Hg19 mi
8:50 AM48 °FPartly sunny.6 mph62%30.12 "Hg19 mi
8:20 AM48 °FPartly sunny.3 mph66%30.09 "Hg19 mi
7:50 AM48 °FPartly sunny.6 mph66%30.09 "Hg19 mi
6:50 AM46 °FPartly sunny.3 mph76%30.07 "Hg19 mi
6:20 AM45 °FPassing clouds.2 mph81%30.07 "Hg19 mi
5:50 AM45 °FPassing clouds.3 mph81%30.07 "Hg19 mi
10:50 PM
Tue, May 3
46 °FPassing clouds.2 mph76%29.98 "Hg9 mi
9:50 PM48 °FPassing clouds.2 mph71%30.01 "Hg9 mi
9:20 PM48 °FPassing clouds.5 mph71%29.98 "Hg9 mi
8:50 PM48 °FPartly sunny.8 mph71%29.98 "Hg12 mi
8:20 PM52 °FSprinkles. Broken clouds.14 mph62%29.95 "Hg12 mi
7:50 PM55 °FScattered clouds.8 mph51%29.95 "Hg12 mi
7:20 PM55 °FScattered clouds.8 mph47%29.95 "Hg19 mi
6:50 PM55 °FScattered clouds.9 mph47%29.95 "Hg19 mi
6:20 PM57 °FScattered clouds.10 mph41%29.95 "Hg19 mi
Weather by CustomWeather, © 2016

See weather overviewHow to use our weather pages